NOAA NWS Hourly Roundups by Site

Regional Weather Roundup for Indianapolis, IN

To Select Another Site Choose from List

Select Site:  

000
ASUS43 KIND 250109
RWRIN

WEATHER ROUNDUP FOR INDIANA
NATIONAL WEATHER SERVICE INDIANAPOLIS IN
800 PM EST SUN JAN 24 2021

NOTE: "FAIR" INDICATES FEW OR NO CLOUDS BELOW 12,000 FEET WITH NO
SIGNIFICANT WEATHER AND/OR OBSTRUCTIONS TO VISIBILITY.

* - STATION DOES NOT REPORT WEATHER SUCH AS PRECIPITATION OR FOG.

+ - STATION NOT QUALITY CONTROLLED BY THE NATIONAL WEATHER SERVICE.
    USE DATA WITH CAUTION...ESPECIALLY DEWPOINT AND RELATIVE
    HUMIDITY OBSERVATIONS.

INZ001>003-010>013-019-020-250200-
NORTHWEST INDIANA

CITY           SKY/WX    TMP DP  RH WIND       PRES   REMARKS
GARY /AIRPORT/ CLOUDY    32  27  80 N3        30.10R
KNOX *+        CLOUDY    28  27  93 CALM      30.09R
LA PORTE +     CLEAR     29  27  91 CALM      30.09R
MICHIGAN CITY+ CLOUDY    30  27  86 CALM      30.10R
MONTICELLO +   CLOUDY    31  29  94 CALM      30.10R
RENSSELAER +   CLOUDY    32  28  86 CALM      30.10R
VALPARAISO     CLOUDY    31  25  78 CALM      30.10R

$$

LMZ046-743>745-250200-
SOUTHERN LAKE MICHIGAN

STATION/POSITION TIME  TEMP    WIND        PRES    WAVE
                       AIR SEA DIR/SP/G            HT
                 (UTC) (F)     (DEG/KT/KT) (MB)    (FT)
BURNS HARBOR     0040   32      CALM  /  1 1019.6R
MICHIGAN CITY    0040   32        CALM       N/A

$$

INZ004-005-014>016-021>024-250200-
NORTH CENTRAL INDIANA

CITY           SKY/WX    TMP DP  RH WIND       PRES   REMARKS
GOSHEN         CLOUDY    30  24  78 CALM      30.07S
LOGANSPORT +   CLOUDY    30  30 100 CALM      30.10R
PERU/GRISSOM   CLOUDY    31  31 100 NW3       30.07R
PLYMOUTH *+    CLOUDY    30  25  80 CALM      30.07R
ROCHESTER +    CLOUDY    32  30  93 CALM      30.09R
SOUTH BEND     CLOUDY    31  25  78 CALM      30.09R
WARSAW +       CLOUDY    30  27  86 CALM      30.07S

$$

INZ006>009-017-018-025>027-250200-
NORTHEAST INDIANA

CITY           SKY/WX    TMP DP  RH WIND       PRES   REMARKS
ANGOLA *+      CLOUDY    28  25  86 CALM      30.06S
AUBURN +       CLOUDY    30  28  93 CALM      30.08S
FORT WAYNE     CLOUDY    30  28  92 CALM      30.08R FOG
HUNTINGTON +   CLOUDY    30  29  96 CALM      30.08R
KENDALLVILLE + CLOUDY    28  27  95 CALM      30.07S

$$

INZ028-029-035-036-043>045-051>053-250200-
WEST CENTRAL INDIANA

CITY           SKY/WX    TMP DP  RH WIND       PRES   REMARKS
CRAWFORDSVL +  CLOUDY    30  29  97 CALM      30.08S
GREENCASTLE +  CLOUDY    32  30  92 N3        30.07S
LAFAYETTE      CLOUDY    34  31  88 N3        30.09R
TERRE HAUTE    CLOUDY    33  31  92 NE3       30.09R

$$

INZ030>032-037>040-046>048-054>057-064-065-250200-
CENTRAL INDIANA

CITY           SKY/WX    TMP DP  RH WIND       PRES   REMARKS
ANDERSON +     CLOUDY    31  30  96 CALM      30.08R FOG
COLUMBUS       FOG       32  30  93 CALM      30.08S VSB 1
FRANKFORT +    CLOUDY    30  30 100 CALM      30.09R
GREENWOOD *+   CLOUDY    32  31  98 CALM      30.08R
INDIANAPOLIS   CLOUDY    33  31  92 NW5       30.07S WCI  29
-EAGLE CREEK   CLOUDY    33  30  88 NW6       30.07R WCI  28
KOKOMO +       CLOUDY    31  30  96 NW5       30.09R WCI  26
MARION +       CLOUDY    31  30  97 NW3       30.08S
MT COMFORT *+  CLOUDY    32  32 100 CALM      30.08R
SHELBYVILLE    FOG       34  30  85 CALM      30.06F VSB 1/2

$$

INZ033-034-041-042-049-050-058-059-250200-
EAST CENTRAL INDIANA

CITY           SKY/WX    TMP DP  RH WIND       PRES   REMARKS
MUNCIE         CLOUDY    33  28  81 NW5       30.07R WCI  29
PORTLAND +     CLOUDY    32  30  93 CALM      30.06R FOG
RICHMOND +     CLOUDY    30  30 100 S3        30.05F VSB 1/2

$$

INZ060-061-067>069-081>083-085>088-250200-
SOUTHWEST INDIANA

CITY           SKY/WX    TMP DP  RH WIND       PRES   REMARKS
EVANSVILLE     CLOUDY    40  35  83 E5        30.06F WCI  37
HUNTINGBURG +  CLOUDY    37  37 100 SE6       30.07F FOG     WCI  32
WASHINGTON +   CLOUDY    35  35  99 NE3       30.07S

$$

INZ062-063-066-070>080-084-089>092-250200-
SOUTH CENTRAL AND SOUTHEAST INDIANA

CITY           SKY/WX    TMP DP  RH WIND       PRES   REMARKS
BATESVILLE +   FOG       32  32 100 CALM      30.06F VSB 1/4
BLOOMINGTON    FOG       34  32  92 CALM      30.06F VSB 1/4
FRENCH LICK *+ CLOUDY    36 N/A N/A CALM      30.06S VSB 3/4
JEFFERSONVL +  FOG       37  37 100 CALM      30.08F VSB 1
MADISON *+     CLOUDY    34  34 100 CALM      30.08S VSB 1/2

$$



 

View Past Reports for Indianapolis, IN.

Products Courtesy of NOAA-NWS
NWS Information Parsing Script by Ken True at Saratoga Weather - Script by SE Lincoln Weather.